KO6TH-15 Weather Reports


time (UTC)temp
F
wind
direction
speed
knots
gust
knots
rain 1hr
in
rain 24hr
in
rain mn
in
humidity
%
barometer
mb
20260504045820 56 0 0.0 0.0 0.00 0.00 0.00 80
20260504044750 57 0 0.9 0.0 0.00 0.00 0.00 79
20260504043750 57 0 0.9 0.0 0.00 0.00 0.00 78
20260504042720 57 0 1.7 0.0 0.00 0.00 0.00 77
20260504041650 58 0 2.6 0.0 0.00 0.00 0.00 77
20260504040620 58 0 0.9 0.0 0.00 0.00 0.00 77
20260504035550 59 0 0.9 0.0 0.00 0.00 0.00 76
20260504034550 59 0 4.3 0.0 0.00 0.00 0.00 76
20260504033520 59 0 3.5 0.0 0.00 0.00 0.00 76
20260504032450 60 0 1.7 0.0 0.00 0.00 0.00 76
20260504031450 60 0 0.9 0.0 0.00 0.00 0.00 75
20260504030420 60 0 2.6 0.0 0.00 0.00 0.00 75
20260504025420 61 0 0.9 0.0 0.00 0.00 0.00 76
20260504024350 61 0 1.7 0.0 0.00 0.00 0.00 75
20260504023350 61 0 0.9 0.0 0.00 0.00 0.00 75
20260504022320 62 0 1.7 0.0 0.00 0.00 0.00 75
20260504021320 62 0 1.7 0.0 0.00 0.00 0.00 73
20260504020250 62 0 0.9 0.0 0.00 0.00 0.00 73
20260504015220 62 0 1.7 0.0 0.00 0.00 0.00 72
20260504014150 62 0 0.9 0.0 0.00 0.00 0.00 73
20260504013150 62 0 0.0 0.0 0.00 0.00 0.00 74
20260504012150 62 0 1.7 0.0 0.00 0.00 0.00 73
20260504011120 62 0 2.6 0.0 0.00 0.00 0.00 73
20260504010120 62 0 2.6 0.0 0.00 0.00 0.00 73
20260504005120 62 0 2.6 0.0 0.00 0.00 0.00 73
20260504004120 61 0 3.5 0.0 0.00 0.00 0.00 75
20260504003120 61 0 3.5 0.0 0.00 0.00 0.00 75
20260504002050 62 0 6.1 0.0 0.00 0.00 0.00 73
20260504001050 63 0 2.6 0.0 0.00 0.00 0.00 72
20260504000020 63 0 0.0 0.0 0.00 0.00 0.00 72
20260503234950 63 0 0.0 0.0 0.00 0.00 0.00 72
20260503233920 62 0 0.0 0.0 0.00 0.00 0.00 72
20260503232850 62 0 1.7 0.0 0.00 0.00 0.00 72
20260503231820 62 0 1.7 0.0 0.00 0.00 0.00 72
20260503230820 63 0 2.6 0.0 0.00 0.00 0.00 71
20260503225750 63 0 0.9 0.0 0.00 0.00 0.00 70
20260503224720 63 0 0.9 0.0 0.00 0.00 0.00 72
20260503223650 62 0 0.0 0.0 0.00 0.00 0.00 72
20260503222620 62 0 2.6 0.0 0.00 0.00 0.00 73
20260503221620 61 0 2.6 0.0 0.00 0.00 0.00 73
20260503220550 61 0 1.7 0.0 0.00 0.00 0.00 73
20260503215520 60 0 1.7 0.0 0.00 0.00 0.00 74
20260503214450 60 0 1.7 0.0 0.00 0.00 0.00 75
20260503213420 60 0 5.2 0.0 0.00 0.00 0.00 75
20260503212420 60 0 5.2 0.0 0.00 0.00 0.00 75
20260503211350 61 0 1.7 0.0 0.00 0.00 0.00 74
20260503210350 60 0 2.6 0.0 0.00 0.00 0.00 74
20260503205350 61 0 0.9 0.0 0.00 0.00 0.00 74
20260503204350 62 0 1.7 0.0 0.00 0.00 0.00 73
20260503203320 63 0 1.7 0.0 0.00 0.00 0.00 72
20260503202250 63 0 5.2 0.0 0.00 0.00 0.00 72
20260503201220 63 0 2.6 0.0 0.00 0.00 0.00 73
20260503200150 63 0 5.2 0.0 0.00 0.00 0.00 73
20260503195150 63 0 6.1 0.0 0.00 0.00 0.00 73
20260503194120 62 0 3.5 0.0 0.00 0.00 0.00 73
20260503193120 60 0 4.3 0.0 0.00 0.00 0.00 78
20260503192050 60 0 3.5 0.0 0.00 0.00 0.00 77
20260503191050 61 0 4.3 0.0 0.00 0.00 0.00 76
20260503190020 61 0 7.8 0.0 0.00 0.00 0.00 75
20260503184950 61 0 2.6 0.0 0.00 0.00 0.00 78
20260503183920 61 0 4.3 0.0 0.00 0.00 0.00 77
20260503182850 59 0 1.7 0.0 0.00 0.00 0.00 81
20260503181850 59 0 2.6 0.0 0.00 0.00 0.00 81
20260503180820 59 0 1.7 0.0 0.00 0.00 0.00 82
20260503175750 58 0 6.1 0.0 0.00 0.00 0.00 86
20260503174720 57 0 2.6 0.0 0.00 0.00 0.00 91
20260503173650 55 0 0.9 0.0 0.00 0.00 0.00 93
20260503172620 55 0 2.6 0.0 0.00 0.00 0.00 91
20260503171550 56 0 0.9 0.0 0.00 0.00 0.00 83
20260503170520 57 0 3.5 0.0 0.00 0.00 0.00 82
20260503130620 50 0 0.9 0.0 0.00 0.00 0.00 98
20260503081350 54 0 0.0 0.0 0.00 0.00 0.00 97
20260503080712 54 0 0.0 0.0 0.00 0.00 0.00 97
20260503080350 54 0 0.0 0.0 0.00 0.00 0.00 97
20260503072250 55 0 0.0 0.0 0.00 0.00 0.00 94
20260503071250 55 0 0.0 0.0 0.00 0.00 0.00 94
20260503070220 55 0 0.0 0.0 0.00 0.00 0.00 93
20260503054850 58 0 0.0 0.0 0.00 0.00 0.00 88